Location: Augsburg
(48.3836°N, 10.8929°E)
Time: 00:50:05
(UTC+01:00)

ISS - Pass Details

Date: 18 November 2017
Orbit: 401 x 407 km, 51.6° (Epoch: 25 November)

Event Time Altitude Azimuth Distance (km) Brightness Sun altitude
Exits shadow 05:31:30 12° 193° (SSW) 1,315 -1.3 -19.2°
Drops below altitude 10° 05:32:05 10° 184° (S) 1,447 -1.0 -19.1°
Sets 05:34:42 0° 161° (SSE) 2,301 0.4 -18.7°
